Regional Weather Roundup
Issued by NWS

Home | Current Version | Previous Version | Graphics & Text | Print | Product List | Glossary On
Versions: 1 2 3 4 5 6 7 8 9 10 11 12 13 14 15 16 17 18 19 20 21 22 23 24 25 26 27 28 29 30 31 32 33 34 35 36 37 38 39 40 41 42 43 44 45 46 47 48 49 50
000
ASUS45 KBOU 291110
RWRCO

WEATHER ROUNDUP FOR COLORADO
NATIONAL WEATHER SERVICE DENVER/BOULDER CO
500 AM MDT WED JUL 29 2015

NOTE: "FAIR" INDICATES FEW OR NO CLOUDS BELOW 12000 FEET WITH NO
SIGNIFICANT WEATHER AND/OR OBSTRUCTIONS TO VISIBILITY.

COZ001>005-013-030-031-291200-
...NORTHWEST COLORADO...

CITY           SKY/WX    TMP DP  RH WIND       PRES   REMARKS
CRAIG          CLEAR     39  33  79 CALM      30.35R
HAYDEN         CLEAR     48  32  53 E9        30.35S
MEEKER         PTCLDY    46  33  60 E5        30.35R
MOUNT WERNER   NOT AVBL
STEAMBOAT SPGS CLEAR     41  34  75 CALM      30.38S
WALDEN         CLEAR     34  30  86 SE6       30.44S WCI  29
$$

COZ006>008-011-291200-
...WEST CENTRAL VALLEYS...

CITY           SKY/WX    TMP DP  RH WIND       PRES   REMARKS
GRAND JUNCTION CLEAR     60  29  30 SE6       30.19R
MONTROSE       CLEAR     57  36  45 SE10      30.28R
EAGLE          CLEAR     48  36  61 CALM      30.38S
RIFLE          PTCLDY    52  32  46 CALM      30.28R
DELTA          CLEAR     55  37  49 N6        30.24R
NUCLA          CLEAR     55  32  41 E6        30.29S
$$

COZ017>023-064>068-291200-
...SOUTHWEST COLORADO...

CITY           SKY/WX    TMP DP  RH WIND       PRES   REMARKS
DURANGO        PTCLDY    57  40  52 E5        30.30R
CORTEZ         CLEAR     49  38  65 N5        30.23R
PAGOSA SPRINGS MOCLDY    56  40  55 CALM      30.39S
TELLURIDE      CLEAR     51  35  54 CALM      30.49R
WOLF CREEK PAS NOT AVBL
$$

COZ009-010-012-014-032>034-037-058>063-291200-
...CENTRAL COLORADO...

CITY           SKY/WX    TMP DP  RH WIND       PRES   REMARKS
ASPEN          CLEAR     44  35  70 SW5       30.41R
BUENA VISTA    PTCLDY    48  38  66 W5        30.46S
COPPER MTN     CLEAR     52  34  50 S13G21    30.68F
BERTHOUD PASS  FAIR      41  32  70 MISG      30.72F
COTTONWOOD PAS MOCLDY    52  36  54 CALM      30.56S
GUNNISON       CLEAR     45  37  76 CALM      30.44R
KREMMLING      CLEAR     41  32  70 CALM      30.43S
LEADVILLE      CLEAR     42  35  76 CALM      30.55S
MONARCH PASS   PTCLDY    41  34  75 E6        30.78S
SALIDA         CLEAR     55  41  60 CALM      30.51R
SUNLIGHT       PTCLDY    50  30  46 CALM      30.62S
WILKERSON PASS PTCLDY    45  36  70 CALM      30.67F
$$

COZ069>075-291200-
...SAN LUIS VALLEY/SANGRE DE CRISTO MOUNTAINS...

CITY           SKY/WX    TMP DP  RH WIND       PRES   REMARKS
ALAMOSA        PTCLDY    56  46  69 SE7       30.37R
LA VETA PASS   CLOUDY    45  37  76 MISG      30.57S
SAGUACHE       MOCLDY    52  45  76 NW9       30.41R
$$

COZ035-036-038>040-291200-
...NORTHERN COLORADO FRONT RANGE...

CITY           SKY/WX    TMP DP  RH WIND       PRES   REMARKS
DENVER INTL AP MOCLDY    59  43  55 S9        30.31R
DMNS CITY PARK   N/A     61  46  58 SW5G10    30.30S
AURORA         PTCLDY    57  44  62 S8        30.33R
FRONT RANGE AP NOT AVBL
ERIE MUNI ARPT CLEAR     54  45  70 CALM      30.29S
BOULDER MUN AP CLEAR     59  43  55 CALM      30.30S
CENTENNIAL     PTCLDY    62  43  49 S12       30.33S
BROOMFIELD     CLEAR     59  41  51 CALM      30.32S
FORT COLLINS   CLEAR     57  43  58 N6        30.31R
LONGMONT       CLEAR     60  47  63 CALM      30.30F
$$

COZ041-046-047-076>085-087-088-291200-
...PIKES PEAK/PALMER DIVIDE AND SOUTHERN FOOTHILLS...

CITY           SKY/WX    TMP DP  RH WIND       PRES   REMARKS
COLO. SPRINGS  MOCLDY    57  44  62 N3        30.38S
A. F. ACADEMY  CLOUDY    56  43  61 NW3       30.39R
ELLICOTT       PTCLDY   N/A N/A N/A SE10      30.35F
FALCON         PTCLDY    55  43  65 CALM      30.42S
FORT CARSON    CLOUDY    61  44  54 CALM      30.35S
LIMON          CLOUDY    57  49  74 E3        30.34R
MONUMENT HILL  PTCLDY    50  41  71 S8        30.42R
TRINIDAD       PTCLDY    61  49  64 N5        30.30R
$$

COZ042>045-048>051-090-091-291200-
...NORTHEAST COLORADO...

CITY           SKY/WX    TMP DP  RH WIND       PRES   REMARKS
GREELEY ARPT   CLEAR     54  45  71 CALM      30.30R
AKRON          MOCLDY    59  47  64 SE10      30.30R
BURLINGTON     MOCLDY    58  51  78 S7        30.30R
WRAY           CLEAR     55  51  87 SW3       30.28R
STERLING       NOT AVBL
HOLYOKE        CLEAR     54  46  76 NE5       30.28R
FORT MORGAN    MOCLDY    56  44  64 NE3       30.29R
$$

COZ086-089-092>099-291200-
...SOUTHEAST COLORADO...

CITY           SKY/WX    TMP DP  RH WIND       PRES   REMARKS
PUEBLO         MOCLDY    70  49  47 NE9       30.26R
LA JUNTA       MOCLDY    66  53  63 E8        30.22F
LAMAR          MOCLDY    65  58  78 NE7       30.19F
SPRINGFIELD      N/A     64  62  93 N9        30.18F
$$


USA.gov is the U.S. government's official web portal to all federal, state and local government web resources and services.